| time (UTC) | temp F | wind direction | speed MPH | gust MPH | rain 1hr in | rain 24hr in | rain mn in | humidity % | barometer mb |
| 20260503233535 | 44 | 180 | 0.0 | 6.0 | 0.00 | 0.00 | 0.00 | 86 | 1007.9 |
| 20260503233030 | 44 | 180 | 1.0 | 6.0 | 0.00 | 0.00 | 0.00 | 86 | 1008.0 |
| 20260503232530 | 44 | 182 | 1.0 | 6.0 | 0.00 | 0.00 | 0.00 | 85 | 1007.9 |
| 20260503232029 | 44 | 184 | 0.0 | 6.0 | 0.00 | 0.00 | 0.00 | 84 | 1008.0 |
| 20260503231529 | 44 | 184 | 0.0 | 5.0 | 0.00 | 0.00 | 0.00 | 84 | 1008.0 |
| 20260503231029 | 44 | 183 | 0.0 | 6.0 | 0.00 | 0.00 | 0.00 | 84 | 1008.1 |
| 20260503230529 | 44 | 188 | 1.0 | 6.0 | 0.00 | 0.00 | 0.00 | 84 | 1008.1 |
| 20260503230028 | 44 | 213 | 0.0 | 6.0 | 0.00 | 0.00 | 0.00 | 84 | 1008.1 |
| 20260503225530 | 44 | 213 | 0.0 | 9.0 | 0.00 | 0.00 | 0.00 | 83 | 1008.3 |
| 20260503225028 | 44 | 168 | 0.0 | 9.0 | 0.00 | 0.00 | 0.00 | 82 | 1008.3 |
| 20260503224527 | 44 | 197 | 2.0 | 7.0 | 0.00 | 0.00 | 0.00 | 82 | 1008.3 |
| 20260503224026 | 45 | 172 | 0.0 | 7.0 | 0.00 | 0.00 | 0.00 | 83 | 1008.4 |
| 20260503223524 | 44 | 196 | 1.0 | 6.0 | 0.00 | 0.00 | 0.00 | 83 | 1008.4 |
| 20260503223024 | 44 | 197 | 1.0 | 6.0 | 0.00 | 0.00 | 0.00 | 84 | 1008.4 |
| 20260503222522 | 44 | 197 | 0.0 | 5.0 | 0.00 | 0.00 | 0.00 | 84 | 1008.5 |
| 20260503222024 | 44 | 197 | 0.0 | 4.0 | 0.00 | 0.00 | 0.00 | 83 | 1008.5 |
| 20260503221521 | 44 | 198 | 0.0 | 5.0 | 0.00 | 0.00 | 0.00 | 84 | 1008.6 |
| 20260503221020 | 44 | 198 | 1.0 | 5.0 | 0.00 | 0.00 | 0.00 | 84 | 1008.6 |
| 20260503220520 | 43 | 200 | 0.0 | 6.0 | 0.00 | 0.00 | 0.00 | 84 | 1008.7 |
| 20260503220019 | 43 | 200 | 1.0 | 6.0 | 0.00 | 0.00 | 0.00 | 84 | 1008.7 |
| 20260503215508 | 43 | 205 | 0.0 | 6.0 | 0.00 | 0.00 | 0.00 | 84 | 1008.8 |
| 20260503215008 | 43 | 206 | 1.0 | 6.0 | 0.00 | 0.00 | 0.00 | 84 | 1008.7 |
| 20260503214527 | 43 | 209 | 0.0 | 4.0 | 0.00 | 0.00 | 0.00 | 87 | 1008.8 |
| 20260503214009 | 43 | 209 | 0.0 | 4.0 | 0.00 | 0.00 | 0.00 | 85 | 1008.8 |
| 20260503213506 | 43 | 209 | 0.0 | 4.0 | 0.00 | 0.00 | 0.00 | 86 | 1008.9 |
| 20260503213007 | 43 | 210 | 0.0 | 5.0 | 0.00 | 0.00 | 0.00 | 86 | 1008.8 |
| 20260503212508 | 43 | 211 | 1.0 | 5.0 | 0.00 | 0.00 | 0.00 | 86 | 1008.9 |
| 20260503212004 | 42 | 213 | 0.0 | 4.0 | 0.00 | 0.00 | 0.00 | 85 | 1009.1 |
| 20260503211505 | 42 | 213 | 0.0 | 4.0 | 0.00 | 0.00 | 0.00 | 86 | 1009.0 |
| 20260503211004 | 42 | 213 | 0.0 | 4.0 | 0.00 | 0.00 | 0.00 | 85 | 1009.1 |
| 20260503210506 | 42 | 213 | 0.0 | 5.0 | 0.00 | 0.00 | 0.00 | 84 | 1009.1 |
| 20260503210003 | 42 | 214 | 1.0 | 7.0 | 0.00 | 0.00 | 0.00 | 84 | 1009.2 |
| 20260503205504 | 42 | 223 | 2.0 | 8.0 | 0.00 | 0.00 | 0.00 | 85 | 1009.3 |
| 20260503205002 | 42 | 229 | 1.0 | 8.0 | 0.00 | 0.00 | 0.00 | 85 | 1009.3 |
| 20260503204502 | 42 | 225 | 2.0 | 8.0 | 0.00 | 0.00 | 0.00 | 85 | 1009.3 |
| 20260503204001 | 42 | 234 | 1.0 | 8.0 | 0.00 | 0.00 | 0.00 | 85 | 1009.4 |
| 20260503203600 | 42 | 181 | 2.0 | 10.0 | 0.00 | 0.00 | 0.00 | 85 | 1009.4 |
| 20260503203100 | 42 | 217 | 3.0 | 10.0 | 0.00 | 0.00 | 0.00 | 84 | 1009.5 |
| 20260503202559 | 42 | 234 | 1.0 | 9.0 | 0.00 | 0.00 | 0.00 | 87 | 1009.5 |
| 20260503202101 | 42 | 229 | 2.0 | 9.0 | 0.00 | 0.00 | 0.00 | 85 | 1009.6 |
| 20260503201557 | 42 | 205 | 4.0 | 9.0 | 0.00 | 0.00 | 0.00 | 84 | 1009.7 |
| 20260503201056 | 43 | 223 | 1.0 | 8.0 | 0.00 | 0.00 | 0.00 | 84 | 1009.8 |
| 20260503200554 | 43 | 202 | 2.0 | 8.0 | 0.00 | 0.00 | 0.00 | 83 | 1009.8 |
| 20260503191544 | 45 | 217 | 0.0 | 6.0 | 0.00 | 0.00 | 0.00 | 78 | 1010.1 |
| 20260503191041 | 45 | 217 | 1.0 | 6.0 | 0.00 | 0.00 | 0.00 | 76 | 1010.1 |
| 20260503190538 | 45 | 217 | 0.0 | 2.0 | 0.00 | 0.00 | 0.00 | 75 | 1010.2 |
| 20260503190041 | 46 | 217 | 0.0 | 6.0 | 0.00 | 0.00 | 0.00 | 75 | 1010.2 |
| 20260503185538 | 46 | 217 | 0.0 | 6.0 | 0.00 | 0.00 | 0.00 | 72 | 1010.2 |
| 20260503185037 | 46 | 217 | 0.0 | 6.0 | 0.00 | 0.00 | 0.00 | 71 | 1010.3 |
| 20260503184543 | 46 | 229 | 1.0 | 6.0 | 0.00 | 0.00 | 0.00 | 67 | 1010.5 |
| 20260503184034 | 46 | 229 | 0.0 | 6.0 | 0.00 | 0.00 | 0.00 | 66 | 1010.5 |
| 20260503183533 | 47 | 209 | 1.0 | 9.0 | 0.00 | 0.00 | 0.00 | 66 | 1010.6 |
| 20260503183032 | 47 | 210 | 2.0 | 11.0 | 0.00 | 0.00 | 0.00 | 64 | 1010.7 |
| 20260503182533 | 48 | 254 | 3.0 | 11.0 | 0.00 | 0.00 | 0.00 | 59 | 1010.8 |
| 20260503182032 | 48 | 229 | 3.0 | 11.0 | 0.00 | 0.00 | 0.00 | 53 | 1010.8 |
| 20260503181531 | 49 | 144 | 3.0 | 13.0 | 0.00 | 0.00 | 0.00 | 48 | 1010.8 |
| 20260503181012 | 50 | 290 | 3.0 | 13.0 | 0.00 | 0.00 | 0.00 | 45 | 1010.8 |
| 20260503180512 | 50 | 245 | 3.0 | 8.0 | 0.00 | 0.00 | 0.00 | 46 | 1010.8 |
| 20260503180011 | 50 | 219 | 1.0 | 8.0 | 0.00 | 0.00 | 0.00 | 47 | 1010.9 |
| 20260503175509 | 50 | 173 | 3.0 | 8.0 | 0.00 | 0.00 | 0.00 | 48 | 1010.9 |
| 20260503175009 | 50 | 229 | 1.0 | 9.0 | 0.00 | 0.00 | 0.00 | 46 | 1010.9 |
| 20260503174515 | 50 | 191 | 4.0 | 8.0 | 0.00 | 0.00 | 0.00 | 44 | 1011.0 |
| 20260503174055 | 50 | 146 | 2.0 | 10.0 | 0.00 | 0.00 | 0.00 | 47 | 1011.0 |
| 20260503173555 | 50 | 159 | 1.0 | 10.0 | 0.00 | 0.00 | 0.00 | 47 | 1010.9 |
| 20260503173105 | 50 | 166 | 2.0 | 13.0 | 0.00 | 0.00 | 0.00 | 48 | 1011.1 |
| 20260503172556 | 50 | 167 | 1.0 | 13.0 | 0.00 | 0.00 | 0.00 | 48 | 1011.2 |
| 20260503172052 | 50 | 182 | 1.0 | 10.0 | 0.00 | 0.00 | 0.00 | 49 | 1011.2 |
| 20260503171553 | 50 | 166 | 2.0 | 7.0 | 0.00 | 0.00 | 0.00 | 50 | 1011.3 |
| 20260503171050 | 50 | 223 | 2.0 | 7.0 | 0.00 | 0.00 | 0.00 | 49 | 1011.4 |
| 20260503170549 | 50 | 180 | 2.0 | 8.0 | 0.00 | 0.00 | 0.00 | 50 | 1011.5 |
| 20260503150552 | 44 | 259 | 4.0 | 9.0 | 0.00 | 0.00 | 0.00 | 76 | 1012.9 |
| 20260503150103 | 44 | 220 | 3.0 | 11.0 | 0.00 | 0.00 | 0.00 | 75 | 1012.9 |
| 20260503131032 | 41 | 177 | 2.0 | 7.0 | 0.00 | 0.00 | 0.00 | 80 | 1013.4 |
| 20260503130513 | 41 | 231 | 1.0 | 7.0 | 0.00 | 0.00 | 0.00 | 80 | 1013.4 |
| 20260503110505 | 37 | 262 | 1.0 | 5.0 | 0.00 | 0.00 | 0.00 | 86 | 1013.7 |
| 20260503081532 | 37 | 257 | 5.0 | 12.0 | 0.00 | 0.00 | 0.00 | 80 | 1014.6 |
| 20260503081013 | 37 | 296 | 2.0 | 11.0 | 0.00 | 0.00 | 0.00 | 80 | 1014.5 |
| 20260503080512 | 37 | 229 | 4.0 | 11.0 | 0.00 | 0.00 | 0.00 | 80 | 1014.6 |
| 20260503072509 | 37 | 260 | 3.0 | 10.0 | 0.00 | 0.00 | 0.00 | 80 | 1014.6 |
| 20260503072008 | 37 | 263 | 3.0 | 11.0 | 0.00 | 0.00 | 0.00 | 81 | 1014.6 |
| 20260503071506 | 37 | 269 | 4.0 | 13.0 | 0.00 | 0.00 | 0.00 | 80 | 1014.6 |
| 20260503071004 | 37 | 286 | 6.0 | 13.0 | 0.00 | 0.00 | 0.00 | 80 | 1014.6 |
| 20260503070604 | 37 | 235 | 5.0 | 10.0 | 0.00 | 0.00 | 0.00 | 81 | 1014.6 |
| 20260503054604 | 37 | 242 | 5.0 | 11.0 | 0.00 | 0.01 | 0.00 | 82 | 1015.0 |
| 20260503054059 | 37 | 247 | 3.0 | 10.0 | 0.00 | 0.01 | 0.00 | 82 | 1015.0 |
| 20260503053558 | 37 | 234 | 4.0 | 10.0 | 0.00 | 0.01 | 0.00 | 81 | 1015.0 |
| 20260503053039 | 37 | 256 | 3.0 | 9.0 | 0.00 | 0.01 | 0.00 | 81 | 1015.0 |
| 20260503052538 | 37 | 265 | 4.0 | 13.0 | 0.00 | 0.01 | 0.00 | 80 | 1015.0 |
| 20260503052038 | 37 | 259 | 5.0 | 13.0 | 0.00 | 0.01 | 0.00 | 79 | 1015.1 |
| 20260503051539 | 38 | 244 | 4.0 | 11.0 | 0.00 | 0.01 | 0.00 | 80 | 1015.1 |
| 20260503051037 | 38 | 265 | 5.0 | 11.0 | 0.00 | 0.01 | 0.00 | 80 | 1015.1 |
| 20260503050535 | 38 | 262 | 4.0 | 11.0 | 0.00 | 0.01 | 0.00 | 80 | 1015.1 |
| 20260503050021 | 38 | 279 | 2.0 | 13.0 | 0.00 | 0.01 | 0.00 | 79 | 1015.2 |
| 20260503045523 | 38 | 246 | 4.0 | 13.0 | 0.00 | 0.01 | 0.00 | 79 | 1015.2 |
| 20260503045021 | 38 | 250 | 6.0 | 13.0 | 0.00 | 0.01 | 0.00 | 78 | 1015.2 |
| 20260503044523 | 38 | 268 | 2.0 | 11.0 | 0.00 | 0.01 | 0.00 | 77 | 1015.2 |
| 20260503044018 | 38 | 262 | 4.0 | 13.0 | 0.00 | 0.01 | 0.00 | 77 | 1015.2 |
| 20260503043517 | 38 | 259 | 3.0 | 12.0 | 0.00 | 0.01 | 0.00 | 77 | 1015.3 |
| 20260503043017 | 38 | 248 | 5.0 | 14.0 | 0.00 | 0.01 | 0.00 | 76 | 1015.3 |
| 20260503042521 | 38 | 245 | 3.0 | 14.0 | 0.00 | 0.01 | 0.00 | 76 | 1015.4 |
| 20260503042016 | 38 | 255 | 3.0 | 12.0 | 0.00 | 0.01 | 0.00 | 75 | 1015.3 |
| 20260503041516 | 38 | 275 | 2.0 | 12.0 | 0.00 | 0.01 | 0.00 | 74 | 1015.2 |
| 20260503041019 | 38 | 288 | 3.0 | 9.0 | 0.00 | 0.01 | 0.00 | 74 | 1015.3 |
| 20260503040515 | 38 | 273 | 3.0 | 12.0 | 0.00 | 0.01 | 0.00 | 74 | 1015.3 |
| 20260503040014 | 38 | 273 | 4.0 | 12.0 | 0.00 | 0.01 | 0.00 | 75 | 1015.3 |
| 20260503035513 | 38 | 248 | 3.0 | 12.0 | 0.00 | 0.01 | 0.00 | 75 | 1015.4 |
| 20260503035013 | 38 | 287 | 4.0 | 12.0 | 0.00 | 0.01 | 0.00 | 77 | 1015.5 |
| 20260503034512 | 38 | 240 | 3.0 | 12.0 | 0.00 | 0.01 | 0.00 | 77 | 1015.5 |
| 20260503034011 | 38 | 260 | 4.0 | 12.0 | 0.00 | 0.01 | 0.00 | 77 | 1015.5 |
| 20260503033514 | 38 | 246 | 4.0 | 13.0 | 0.00 | 0.01 | 0.00 | 76 | 1015.6 |
| 20260503033016 | 38 | 264 | 4.0 | 15.0 | 0.00 | 0.01 | 0.00 | 76 | 1015.5 |
| 20260503032510 | 38 | 228 | 4.0 | 11.0 | 0.00 | 0.01 | 0.00 | 76 | 1015.5 |
| 20260503032009 | 38 | 236 | 4.0 | 13.0 | 0.00 | 0.01 | 0.00 | 75 | 1015.6 |
| 20260503031508 | 38 | 257 | 6.0 | 15.0 | 0.00 | 0.01 | 0.00 | 74 | 1015.6 |
| 20260503031012 | 38 | 269 | 5.0 | 15.0 | 0.00 | 0.01 | 0.00 | 73 | 1015.6 |
| 20260503030507 | 38 | 266 | 6.0 | 14.0 | 0.00 | 0.01 | 0.00 | 73 | 1015.7 |
| 20260503030116 | 38 | 253 | 5.0 | 14.0 | 0.00 | 0.01 | 0.00 | 73 | 1015.7 |
| 20260503025549 | 38 | 279 | 4.0 | 13.0 | 0.00 | 0.01 | 0.00 | 74 | 1015.7 |
| 20260503025051 | 38 | 246 | 4.0 | 15.0 | 0.00 | 0.01 | 0.00 | 73 | 1015.7 |
| 20260503024547 | 38 | 250 | 4.0 | 15.0 | 0.00 | 0.01 | 0.00 | 73 | 1015.7 |
| 20260503024047 | 38 | 288 | 6.0 | 14.0 | 0.00 | 0.01 | 0.00 | 73 | 1015.8 |
| 20260503023549 | 38 | 289 | 4.0 | 14.0 | 0.00 | 0.01 | 0.00 | 73 | 1015.8 |
| 20260503023030 | 38 | 297 | 4.0 | 15.0 | 0.00 | 0.01 | 0.00 | 74 | 1015.8 |
| 20260503022526 | 38 | 345 | 5.0 | 15.0 | 0.00 | 0.01 | 0.00 | 74 | 1016.0 |
| 20260503022026 | 38 | 269 | 4.0 | 19.0 | 0.00 | 0.01 | 0.00 | 74 | 1016.0 |
| 20260503021528 | 38 | 235 | 4.0 | 19.0 | 0.00 | 0.01 | 0.00 | 74 | 1015.9 |
| 20260503021024 | 38 | 261 | 4.0 | 15.0 | 0.00 | 0.01 | 0.00 | 74 | 1016.0 |
| 20260503020523 | 38 | 280 | 4.0 | 15.0 | 0.00 | 0.01 | 0.00 | 74 | 1016.0 |
| 20260503020013 | 38 | 254 | 5.0 | 14.0 | 0.00 | 0.01 | 0.00 | 74 | 1015.8 |
| 20260503015512 | 38 | 265 | 4.0 | 14.0 | 0.00 | 0.01 | 0.00 | 74 | 1015.8 |
| 20260503015012 | 38 | 296 | 4.0 | 13.0 | 0.00 | 0.01 | 0.00 | 74 | 1015.8 |
| 20260503014511 | 38 | 235 | 7.0 | 14.0 | 0.00 | 0.04 | 0.00 | 74 | 1015.8 |
| 20260503014010 | 38 | 293 | 6.0 | 14.0 | 0.00 | 0.04 | 0.00 | 74 | 1015.9 |
| 20260503013510 | 38 | 276 | 4.0 | 15.0 | 0.00 | 0.04 | 0.00 | 75 | 1015.9 |
| 20260503013009 | 38 | 278 | 6.0 | 15.0 | 0.00 | 0.04 | 0.00 | 75 | 1015.9 |
| 20260503012509 | 38 | 243 | 3.0 | 18.0 | 0.00 | 0.04 | 0.00 | 76 | 1015.9 |
| 20260503012009 | 38 | 303 | 6.0 | 18.0 | 0.00 | 0.04 | 0.00 | 75 | 1016.0 |
| 20260503011508 | 38 | 302 | 6.0 | 15.0 | 0.00 | 0.04 | 0.00 | 76 | 1015.9 |
| 20260503011010 | 38 | 306 | 3.0 | 15.0 | 0.00 | 0.04 | 0.00 | 75 | 1015.9 |
| 20260503010509 | 38 | 284 | 6.0 | 15.0 | 0.00 | 0.04 | 0.00 | 75 | 1015.7 |
| 20260503010007 | 38 | 227 | 6.0 | 14.0 | 0.00 | 0.04 | 0.00 | 75 | 1015.7 |
| 20260503005505 | 39 | 277 | 5.0 | 13.0 | 0.00 | 0.04 | 0.00 | 76 | 1015.8 |
| 20260503005004 | 39 | 273 | 6.0 | 18.0 | 0.00 | 0.04 | 0.00 | 75 | 1016.0 |
| 20260503004503 | 39 | 315 | 7.0 | 18.0 | 0.00 | 0.04 | 0.00 | 76 | 1015.9 |
| 20260503004004 | 39 | 306 | 6.0 | 16.0 | 0.00 | 0.04 | 0.00 | 76 | 1015.9 |
| 20260503003502 | 39 | 323 | 8.0 | 16.0 | 0.00 | 0.04 | 0.00 | 76 | 1015.8 |
| 20260503003002 | 39 | 236 | 5.0 | 16.0 | 0.00 | 0.04 | 0.00 | 78 | 1015.9 |
| 20260503002503 | 39 | 254 | 4.0 | 16.0 | 0.00 | 0.04 | 0.00 | 79 | 1015.8 |
| 20260503002001 | 39 | 259 | 6.0 | 16.0 | 0.00 | 0.04 | 0.00 | 79 | 1015.9 |
| 20260503001601 | 39 | 219 | 6.0 | 16.0 | 0.00 | 0.04 | 0.00 | 79 | 1015.9 |
| 20260503001103 | 39 | 242 | 4.0 | 12.0 | 0.00 | 0.04 | 0.00 | 79 | 1016.0 |
| 20260503000559 | 39 | 242 | 4.0 | 12.0 | 0.00 | 0.04 | 0.00 | 78 | 1016.0 |
| 20260503000058 | 40 | 277 | 5.0 | 12.0 | 0.00 | 0.04 | 0.00 | 77 | 1015.9 |
| 20260502235539 | 40 | 234 | 5.0 | 12.0 | 0.00 | 0.04 | 0.00 | 76 | 1016.0 |
| 20260502235038 | 40 | 254 | 5.0 | 13.0 | 0.00 | 0.04 | 0.00 | 75 | 1015.9 |
| 20260502234538 | 40 | 329 | 5.0 | 16.0 | 0.00 | 0.04 | 0.00 | 73 | 1015.9 |
| 20260502234038 | 40 | 261 | 7.0 | 16.0 | 0.00 | 0.04 | 0.00 | 71 | 1015.9 |